FW7353 Weather Reports


time (UTC)temp
F
wind
direction
speed
knots
gust
knots
rain 1hr
in
rain 24hr
in
rain mn
in
humidity
%
barometer
mb
20260506003035 67 0 0.0 0.0 0.00 0.00 0.00 75 1015.0
20260506001543 68 0 0.0 0.0 0.00 0.00 0.00 74 1015.0
20260506000045 69 0 0.0 0.0 0.00 0.00 0.00 73 1014.8
20260505234535 69 0 0.0 0.0 0.00 0.00 0.00 73 1014.9
20260505233036 70 0 0.0 0.0 0.00 0.00 0.00 71 1014.8
20260505231557 70 0 0.0 0.0 0.00 0.00 0.00 70 1014.9
20260505230039 70 0 0.0 0.0 0.00 0.00 0.00 68 1014.9
20260505224537 71 0 0.0 0.0 0.00 0.00 0.00 69 1015.0
20260505124541 63 0 0.0 0.0 0.00 0.00 0.00 92 1016.8
20260505123042 62 0 0.0 0.0 0.00 0.00 0.00 95 1016.7
20260505121539 60 0 0.0 0.0 0.00 0.00 0.00 95 1016.7
20260505120045 58 0 0.0 0.0 0.00 0.00 0.00 95 1016.5
20260505114548 56 0 0.0 0.0 0.00 0.00 0.00 94 1016.4
20260505113036 55 0 0.0 0.0 0.00 0.00 0.00 94 1016.2
20260505111535 54 0 0.0 0.0 0.00 0.00 0.00 94 1016.0
20260505101545 53 0 0.0 0.0 0.00 0.00 0.00 93 1015.4
20260505100038 54 0 0.0 0.0 0.00 0.00 0.00 93 1015.2
20260505094539 54 0 0.0 0.0 0.00 0.00 0.00 92 1015.1
20260505093034 54 0 0.0 0.0 0.00 0.00 0.00 92 1015.0
20260505091535 54 0 0.0 0.0 0.00 0.00 0.00 92 1015.0
20260505090042 54 0 0.0 0.0 0.00 0.00 0.00 92 1014.6
20260505084535 55 0 0.0 0.0 0.00 0.00 0.00 92 1014.6
20260505083035 55 0 0.0 0.0 0.00 0.00 0.00 92 1014.6
20260505081541 55 0 0.0 0.0 0.00 0.00 0.00 92 1014.7
20260505080036 55 0 0.0 0.0 0.00 0.00 0.00 91 1014.7
20260505074533 55 0 0.0 0.0 0.00 0.00 0.00 91 1014.4
20260505073037 55 0 0.0 0.0 0.00 0.00 0.00 91 1014.4
20260505071552 55 0 0.0 0.0 0.00 0.00 0.00 91 1014.4
20260505070040 55 0 0.0 0.0 0.00 0.00 0.00 90 1014.4
20260505064537 55 0 0.0 0.0 0.00 0.00 0.00 90 1014.5
20260505063042 56 0 0.0 0.0 0.00 0.00 0.00 90 1014.6
20260505061538 56 0 0.0 0.0 0.00 0.00 0.00 89 1014.9
20260505060046 56 0 0.0 0.0 0.00 0.00 0.00 89 1015.0
20260505054536 56 0 0.0 0.0 0.00 0.00 0.00 89 1015.1
20260505053034 56 0 0.0 0.0 0.00 0.00 0.00 88 1015.1
20260505051539 56 0 0.0 0.0 0.00 0.00 0.00 87 1015.2
20260505041537 58 0 0.0 0.0 0.00 0.00 0.00 84 1015.4
20260505040120 58 0 0.0 0.0 0.00 0.00 0.00 84 1015.3
20260505034541 58 0 0.0 0.0 0.00 0.00 0.00 82 1015.2
20260505033040 59 0 0.0 0.0 0.00 0.00 0.00 82 1015.2
20260505031535 59 0 0.0 0.0 0.00 0.00 0.00 81 1015.4
20260505030043 59 0 0.0 0.0 0.00 0.00 0.00 80 1015.5
20260505024540 60 0 0.0 0.0 0.00 0.00 0.00 79 1015.6
20260505023041 60 0 0.0 0.0 0.00 0.00 0.00 78 1015.5
20260505021539 61 0 0.0 0.0 0.00 0.00 0.00 77 1015.5
20260505020038 61 0 0.0 0.0 0.00 0.00 0.00 75 1015.2
20260505014536 62 0 0.0 0.0 0.00 0.00 0.00 74 1014.9
20260505013051 63 0 0.0 0.0 0.00 0.00 0.00 73 1015.0
20260505011535 63 0 0.0 0.0 0.00 0.00 0.00 71 1014.7
20260505010035 65 0 0.0 0.0 0.00 0.00 0.00 70 1014.4
20260505004537 65 0 0.0 0.0 0.00 0.00 0.00 68 1014.4